User: anonymous   Login
Location: Unspecified
(0.0000°N, 0.0000°E)
Time: 12:40:37
(UTC+00:00)
Language:

BEESAT 2 - Orbit

View from above orbital plane
View from above orbital plane
View from above satellite
View from above satellite

Ground track
Ground track

The orbit data is extracted from the following two-line orbital elements,

1 39136U 13015G   18170.17049181  .00000738  00000-0  48075-4 0  9996
2 39136  64.8685 136.6669 0022392 236.9126 122.9850 15.16158491284894
Epoch (UTC): 19 June 2018 04:05:30
Eccentricity: 0.0022392
inclination: 64.8685°
perigee height: 502 km
apogee height: 533 km
right ascension of ascending node: 136.6669°
argument of perigee: 236.9126°
revolutions per day: 15.16158491
mean anomaly at epoch: 122.9850°
orbit number at epoch: 28489

The dashed part of the orbit path shows where the satellite is in the earth's shadow,  

DLR